SCP
0 0 0 0 0 0 0 0 0 0 0 0 0 0 0 0 0 0 0 0 0 0 0 0 0 0 0 0 0 0 0 0 0 0 0 0 0 0 0 0 0 0 0
0 0 0 0 0 0 0 0 0 0 0 0 0 0 0 0 0 0 0 0 0 0 0 0 0 0 0 0 0 0 0 0 0 0 0 0 0 0 0 0 0 0 0
0 0 0 0 0 0 0 0 0 0 0 0 0 0 0 0 0 0 0 0 0 0 0 0 0 0 0 0 0 0 0 0 0 0 0 0 0 0 0 0 0 0 0
0 0 0 0 0 0 0 0 0 0 0 0 0 0 0 0 0 0 0 0 0 0 0 0 0 0 0 0 0 0 0 0 0 0 0 0 0 0 0 0 0 0 0
0 0 0 0 0 0 0 0 0 0 0 0 0 0 0 0 0 0 0 0 0 0 0 0 0 0 0 0 0 0 0 0 0 0 0 0 0 0 0 0 0 0 0
0 0 0 0 0 0 0 0 0 0 0 0 0 0 0 0 0 0 0 0 0 0 0 0 0 0 0 0 0 0 0 0 0 0 0 0 0 0 0 0 0 0 0
0 0 0 0 0 0 0 0 0 0 0 0 0 0 0 0 0 0 0 0 0 0 0 0 0 0 0 0 0 0 0 0 0 0 0 0 0 0 0 0 0 0 0
0 0 0 0 0 0 0 0 0 0 0 0 0 0 0 0 0 0 0 0 0 0 0 0 0 0 0 0 0 0 0 0 0 0 0 0 0 0 0 0 0 0 0
0 0 0 0 0 0 0 0 0 0 0 0 0 0 0 0 0 0 0 0 0 0 0 0 0 0 0 0 0 0 0 0 0 0 0 0 0 0 0 0 0 0 0
0 0 0 0 0 0 0 0 0 0 0 0 0 0 0 0 0 0 0 0 0 0 0 0 0 0 0 0 0 0 0 0 0 0 0 0 0 0 0 0 0 0 0
0 0 0 0 0 0 0 0 0 0 0 0 0 0 0 0 0 0 0 0 0 0 0 0 0 0 0 0 0 0 0 0 0 0 0 0 0 0 0 0 0 0 0
0 0 0 0 0 0 0 0 0 0 0 0 0 0 0 0 0 0 0 0 0 0 0 0 0 0 0 0 0 0 0 0 0 0 0 0 0 0 0 0 0 0 0
0 0 0 0 0 0 0 0 0 0 0 0 0 0 0 0 0 0 0 0 0 0 0 0 0 0 0 0 0 0 0 0 0 0 0 0 0 0 0 0 0 0 0
0 0 0 0 0 0 0 0 0 0 0 0 0 0 0 0 0 0 0 0 0 0 0 0 0 0 0 0 0 0 0 0 0 0 0 0 0 0 0 0 0 0 0
0 0 0 0 0 0 0 0 0 0 0 0 0 0 0 0 0 0 0 0 0 0 0 0 0 0 0 0 0 0 0 0 0 0 0 0 0 0 0 0 0 0 0
0 0 0 0 0 0 0 0 0 0 0 0 0 0 0 0 0 0 0 0 0 0 0 0 0 0 0 0 0 0 0 0 0 0 0 0 0 0 0 0 0 0 0
0 0 0 0 0 0 0 0 0 0 0 0 0 0 0 0 0 0 0 0 0 0 0 0 0 0 0 0 0 0 0 0 0 0 0 0 0 0 0 0 0 0 0
0 0 0 0 0 0 0 0 0 0 0 1 0 0 0 0 0 0 0 0 0 0 0 0 0 0 0 0 0 0 0 0 0 0 0 0 0 0 0 0 0 0 0
0 0 0 0 0 0 0 0 0 0 1 1 1 1 0 0 0 1 0 0 0 0 0 0 0 0 0 0 0 0 0 0 0 0 0 0 0 0 0 0 0 0 0
0 0 0 0 0 0 0 0 0 0 0 1 1 0 0 0 0 0 0 0 0 0 0 0 0 0 0 0 0 0 0 0 0 0 0 0 0 0 0 0 0 0 0
0 0 0 0 0 0 0 0 0 0 0 1 1 0 0 0 0 0 0 0 0 0 0 0 0 0 0 1 0 0 0 0 0 0 0 0 0 0 0 0 0 0 0
0 0 0 0 0 0 0 0 0 0 0 0 0 0 0 0 0 0 0 0 0 0 0 0 0 0 0 0 0 0 0 0 0 0 0 0 0 0 0 0 0 0 0
0 0 0 0 0 0 0 0 0 0 0 0 0 0 0 0 0 0 0 0 0 0 0 0 0 0 0 0 0 0 0 0 0 0 0 0 0 0 0 0 0 0 0
0 0 0 0 0 0 0 0 0 0 0 0 0 0 0 0 0 0 0 0 0 0 0 0 0 0 0 0 0 0 0 0 0 0 0 0 0 0 0 0 0 0 0
0 0 0 0 0 0 0 0 0 0 0 0 0 0 0 0 0 0 0 0 0 0 0 0 0 0 0 0 0 0 0 0 0 0 0 0 0 0 0 0 0 0 0
0 0 0 0 0 0 0 0 0 0 0 0 0 0 0 0 0 0 0 0 0 0 0 0 0 0 0 0 0 0 0 0 0 0 0 0 0 0 0 0 0 0 0
Wind_Speed
5 5 3 3 3 4 5 4 4 4 3 4 4 4 3 2 3 3 7 9 7 7 7 7 7 7 7 7 7 7 7 7 6 6 6 6 6 6 6 6 6 5 5
5 5 5 4 3 3 3 3 4 4 4 3 3 3 3 3 3 3 5 8 8 7 7 7 7 8 8 7 7 7 7 7 7 6 6 6 6 6 6 6 6 6 5
6 5 4 5 4 4 4 3 4 4 4 4 4 3 3 3 4 4 4 4 7 9 8 7 7 7 8 8 8 8 8 7 7 7 7 7 7 7 7 7 6 6 6
6 5 4 5 4 4 4 4 4 4 4 3 3 3 3 4 4 5 4 4 4 6 9 9 8 7 8 8 8 8 8 8 8 8 8 8 8 8 8 8 7 7 7
7 6 4 3 5 4 4 4 4 4 3 3 4 4 3 4 4 5 4 5 5 4 5 10 10 8 9 9 9 9 9 9 9 10 10 10 9 9 9 9 8 8 8
8 7 5 5 6 5 4 4 3 3 3 3 4 3 4 4 4 4 5 5 5 6 6 6 8 10 11 10 9 9 9 10 10 10 10 10 10 10 10 10 9 9 9
8 7 5 6 6 5 5 6 5 6 5 4 3 4 4 6 5 4 5 5 6 6 6 6 6 5 7 13 11 10 10 10 10 10 11 11 11 10 10 11 10 10 10
9 8 7 6 6 5 6 6 5 5 4 5 4 3 4 5 6 6 5 6 6 6 7 8 7 6 6 5 8 12 11 11 11 10 10 11 11 11 11 11 11 11 11
10 8 8 8 6 7 6 7 7 7 5 5 5 4 3 3 4 5 6 5 5 5 6 6 8 8 8 6 6 12 12 11 11 11 11 10 10 11 11 11 12 11 11
10 10 9 9 8 7 6 8 7 6 6 5 5 5 5 3 3 3 6 6 7 7 7 6 7 8 8 7 5 4 10 10 10 11 11 10 10 11 11 12 13 13 12
10 10 10 9 8 7 7 7 6 7 6 7 5 5 6 4 6 5 3 4 5 6 6 7 6 6 7 7 6 8 11 10 10 10 10 10 10 11 11 12 13 13 13
8 10 10 9 9 8 7 8 7 9 7 6 6 5 5 5 5 5 5 5 4 4 5 5 6 6 6 7 8 6 9 10 10 10 10 10 11 11 11 12 13 13 13
8 10 10 9 9 8 8 8 8 8 8 8 8 7 6 6 5 5 5 5 4 4 4 6 6 5 5 5 5 8 9 10 10 10 10 11 11 11 11 11 12 13 13
8 10 11 10 10 9 9 8 7 8 7 8 9 8 6 7 5 5 5 5 5 5 5 6 4 5 4 5 3 7 7 11 11 11 11 11 11 11 11 11 11 11 11
8 10 10 11 10 9 9 9 8 8 8 9 9 9 8 6 5 5 5 5 6 6 5 4 5 4 4 4 3 6 7 8 10 11 11 11 11 11 11 10 10 10 10
8 9 9 10 10 10 9 9 8 8 9 8 7 8 8 7 5 5 5 5 6 7 7 4 3 4 3 5 5 7 7 6 10 10 10 10 10 10 10 10 10 10 10
8 9 9 9 10 10 9 9 9 8 9 9 8 8 9 7 5 5 5 5 6 6 7 6 4 3 3 6 4 5 7 7 7 12 11 10 10 10 10 10 10 10 10
7 8 8 9 9 9 9 9 9 8 8 8 9 8 8 6 7 6 5 6 5 6 7 7 5 4 5 6 5 6 6 6 7 8 11 10 10 10 10 10 10 9 9
6 6 6 7 8 8 9 9 8 8 8 7 7 7 7 6 6 5 5 5 5 6 5 6 6 4 4 4 5 6 7 5 8 5 10 11 10 10 9 10 10 10 10
5 5 5 5 5 6 7 8 8 7 7 6 6 6 5 5 5 5 4 5 5 5 4 5 6 5 4 4 4 6 6 5 6 6 4 5 8 11 11 11 11 10 10
4 4 5 4 4 4 4 5 6 6 6 5 5 4 4 3 1 2 3 3 4 4 4 5 5 5 4 3 4 5 6 5 5 5 5 5 5 6 7 10 11 9 9
3 4 4 4 3 2 1 2 3 3 3 3 3 3 3 4 4 3 1 1 2 3 4 4 4 4 4 4 4 5 5 5 5 2 4 6 5 5 5 5 4 5 6
4 3 4 3 3 2 4 3 2 2 2 2 2 2 2 1 2 2 4 4 2 1 2 3 4 4 4 3 4 5 4 5 5 5 4 6 5 5 5 4 5 5 6
4 3 4 4 4 4 4 3 2 2 2 1 1 1 1 1 1 1 2 2 2 1 1 2 2 3 3 4 4 5 5 5 6 5 4 6 6 6 6 5 5 7 7
5 5 4 5 5 5 5 4 3 3 3 3 3 3 2 2 3 2 2 2 1 1 3 3 1 1 2 3 4 4 4 5 5 4 3 5 6 6 6 6 4 8 9
6 6 6 6 6 6 7 6 3 3 4 4 4 5 8 6 6 4 0 1 0 1 1 1 2 3 2 1 2 3 4 5 5 5 3 4 6 7 7 5 5 4 6
Wind_Direction
170 151 152 158 168 151 165 182 176 156 167 171 175 158 159 147 129 133 129 151 163 170 170 169 171 170 169 171 171 169 167 163 162 162 163 162 163 162 161 161 161 159 158
165 164 167 171 171 175 163 177 165 172 188 170 182 161 178 153 141 162 147 153 169 178 183 183 184 183 183 183 184 183 182 179 178 178 177 178 180 181 181 180 180 181 182
173 184 175 182 177 169 166 188 176 184 186 185 183 177 173 174 156 171 167 163 167 179 191 194 195 194 193 193 193 194 194 194 192 192 193 194 196 197 197 197 198 198 200
188 199 190 188 174 189 187 177 201 198 193 197 181 193 169 167 172 180 182 185 185 176 181 192 200 203 205 206 205 203 203 203 204 206 207 207 208 209 208 208 209 209 210
193 207 204 185 192 197 201 207 180 212 192 200 190 183 190 185 178 192 196 200 191 200 184 171 192 203 210 214 215 214 211 211 212 214 216 217 218 217 215 216 217 218 218
197 209 206 196 209 200 203 213 186 206 210 206 223 175 192 192 201 191 209 205 201 203 209 188 190 194 205 214 217 219 218 217 217 218 220 222 224 222 220 220 222 223 224
199 208 220 193 214 208 211 206 204 197 209 202 216 203 199 202 206 201 212 215 206 207 213 206 218 211 191 201 210 218 222 223 222 221 222 223 225 223 221 223 225 226 228
205 203 212 211 208 209 211 214 215 224 204 198 225 219 210 196 209 208 202 212 218 208 210 208 214 217 238 205 185 203 218 225 226 225 222 222 223 223 224 223 226 227 228
207 215 208 216 211 216 207 212 209 223 220 208 224 237 239 223 195 191 206 212 216 222 224 213 213 213 222 231 204 192 206 218 226 229 226 223 220 222 225 225 227 227 229
210 210 214 214 215 219 207 217 208 220 226 222 210 237 266 317 261 200 197 198 208 220 232 233 221 213 217 225 216 200 196 212 222 228 229 225 222 223 226 227 230 231 231
212 212 213 214 213 220 217 228 212 226 223 231 224 218 227 230 248 261 235 211 208 215 215 224 234 230 219 225 222 208 189 208 219 226 228 227 226 227 229 230 233 235 236
212 213 214 214 216 219 214 218 219 220 231 234 240 235 229 231 235 240 245 236 229 218 212 222 231 230 226 226 224 176 186 206 218 224 227 229 233 234 234 234 236 239 241
210 209 213 213 217 216 219 221 221 229 223 226 232 237 237 242 249 250 260 261 260 241 212 227 226 229 229 230 218 172 199 209 218 223 226 230 233 235 236 238 240 243 246
216 211 210 213 217 215 216 214 225 223 223 228 233 236 244 243 243 246 253 264 261 254 229 236 228 229 236 239 209 186 219 202 214 223 227 230 231 230 232 235 239 243 247
216 213 212 212 214 214 217 217 227 227 223 227 230 223 233 238 239 244 247 255 267 271 261 223 232 228 237 245 197 227 242 198 206 220 227 229 229 230 231 234 237 240 243
216 215 212 211 212 213 214 219 225 225 226 226 230 233 231 234 232 238 242 245 252 265 275 275 244 256 259 268 205 238 242 202 207 217 223 226 228 230 232 234 236 237 239
212 213 211 211 210 212 213 216 225 222 225 224 224 223 226 235 231 232 233 240 243 248 259 267 268 258 243 267 260 250 250 245 224 202 210 219 225 228 230 233 235 235 237
210 210 211 211 211 211 213 217 222 221 221 223 223 221 223 219 220 237 240 244 247 250 255 263 269 261 240 247 255 259 261 252 256 192 198 213 221 226 228 230 233 236 238
203 207 208 212 214 214 213 216 219 221 221 223 221 220 222 220 221 227 236 246 248 246 249 260 262 262 258 250 251 252 258 265 267 220 195 206 216 222 227 228 231 234 237
198 201 205 210 215 219 220 219 216 217 220 221 218 216 218 216 218 224 228 241 250 255 252 258 264 261 255 251 253 259 257 243 257 265 255 234 212 215 224 226 228 232 236
194 194 197 202 208 218 227 219 214 214 214 209 203 203 202 186 179 232 247 245 249 253 256 258 263 270 273 281 274 279 282 280 266 264 267 260 241 240 225 224 224 229 238
177 174 178 181 182 202 128 171 203 202 197 194 191 191 187 179 168 163 137 10 312 271 273 276 277 282 289 289 293 290 290 285 278 275 276 273 268 265 258 252 191 201 230
143 140 139 133 121 74 71 102 143 186 189 200 205 207 216 173 171 196 176 182 186 258 277 283 288 296 297 302 295 285 287 292 292 299 285 276 269 267 267 258 170 197 223
118 113 107 103 98 68 61 85 125 170 172 161 128 119 119 88 35 255 207 177 168 158 217 242 289 300 322 326 303 288 288 275 264 258 269 280 287 283 284 279 195 206 225
103 100 95 89 87 68 49 63 107 121 103 93 85 66 63 76 18 321 208 174 166 168 132 121 89 41 26 1 326 300 301 292 292 293 279 280 289 291 285 276 244 207 224
103 98 83 74 74 68 50 49 83 111 105 101 90 77 57 47 36 17 81 134 153 340 329 154 177 207 232 227 247 297 306 298 298 297 322 303 297 303 294 285 289 274 254